#timestamp,LO_Frequency,Hit,StdDev 
1620680415.0,286047010.4,Y
1620680415.9,286047010.4,P
1620680435.8,286047000.0,N
1620680455.6,286047001.2,N
1620680475.4,286047001.5,N
1620680495.3,286047002.8,N
1620680515.1,286047002.4,N
1620680535.9,286046999.8,N
1620680555.7,286047002.7,N
1620680575.5,286047000.1,N
1620680595.4,286046999.8,N
1620680615.2,286047002.9,N
1620680635.1,286047004.2,N
1620680636.0,286047004.2,N
1620680655.8,286047004.2,N
1620680675.6,286047005.8,N
1620680695.5,286047003.3,N
1620680715.3,286047004.2,N
1620680735.1,286047004.4,N
1620680755.9,286047000.6,N
1620680775.7,286047001.0,N
1620680795.6,286047000.7,N
1620680815.4,286046998.6,N
1620680835.2,286047000.1,N
1620680855.1,286047002.7,N
1620680856.0,286047002.7,N
1620680875.8,286047000.2,N
1620680895.7,286047002.8,N
1620680915.5,286047002.3,N
1620680935.3,286046999.8,N
1620680955.2,286047001.3,N
1620680975.9,286047002.5,N
1620680995.7,286047004.2,N
1620681015.6,286047006.7,Y
1620681035.4,286047009.2,P
1620681055.3,286047009.1,N
1620681075.1,286047008.6,N
1620681076.0,286047008.6,N
1620681095.8,286047007.9,N
1620681115.7,286047006.2,N
1620681135.5,286047004.6,N
1620681155.3,286047005.6,N
1620681175.2,286047004.5,N
1620681195.0,286047004.8,N
1620681195.9,286047004.8,N
1620681215.8,286047004.7,N
1620681235.6,286047007.3,Y
1620681255.4,286047001.0,P
1620681275.3,286046998.5,N
1620681295.1,286046998.8,N
1620681315.9,286046998.5,N
1620681335.7,286047001.2,N
1620681355.6,286046998.7,N
1620681375.4,286046999.3,N
1620681395.2,286046999.3,N
1620681415.1,286046998.7,N
1620681416.0,286046998.7,N
1620681435.8,286047001.1,N
1620681455.6,286047002.6,N
1620681475.5,286047005.4,N
1620681495.3,286047006.9,N
1620681515.2,286047006.1,N
1620681535.9,286047011.1,Y
1620681555.7,286047015.2,P
1620681575.6,286047018.3,N
1620681595.4,286047017.5,N
1620681615.2,286047019.6,N
1620681635.1,286047019.5,N
1620681636.0,286047019.5,Y
1620681655.8,286047002.9,P
1620681675.7,286047006.9,N
1620681695.5,286047009.1,N
1620681715.3,286047011.8,N
1620681735.2,286047008.8,N
1620681755.0,286047004.5,N
1620681755.9,286047004.5,N
1620681775.8,286047002.9,N
1620681795.6,286047005.5,N
1620681815.4,286047006.1,N
1620681835.3,286047005.5,N
1620681855.1,286047002.8,N
1620681875.9,286047000.6,N
1620681895.7,286047000.0,N
1620681915.5,286046998.4,N
1620681935.4,286046997.1,N
1620681955.2,286046999.6,N
1620681975.0,286046999.4,N
1620681975.9,286046999.4,N
1620681995.8,286046999.2,N
1620682015.6,286046999.4,N
1620682035.5,286047001.9,N
1620682055.3,286047007.8,N
1620682075.1,286047007.8,N
1620682095.9,286047007.3,N
1620682115.7,286047003.3,N
1620682135.6,286047003.8,N
1620682155.4,286047003.9,N
1620682175.2,286047003.9,N
1620682195.1,286047000.9,N
1620682196.0,286047000.9,N
1620682215.8,286047003.7,N
1620682235.7,286047008.3,N
1620682255.5,286047011.2,Y
1620682275.3,286047005.3,P
1620682295.2,286047004.0,P
1620682315.0,286047004.4,P
1620682315.9,286047004.4,Y
1620682335.8,286046997.9,P
1620682355.6,286046994.0,N
1620682375.4,286046995.9,N
1620682395.3,286046997.1,N
1620682415.1,286046998.3,N
1620682435.8,286047000.3,N
1620682455.7,286047005.5,N
1620682475.5,286047006.2,N
1620682495.4,286047010.5,N
1620682515.2,286047010.7,N
1620682535.0,286047008.1,N
1620682535.9,286047008.1,N
1620682555.8,286047012.1,N
1620682575.6,286047017.0,N
1620682595.4,286047014.1,N
1620682615.3,286047019.9,N
1620682635.1,286047016.2,N
1620682655.9,286047018.3,N
1620682675.7,286047021.1,N
1620682695.5,286047022.4,N
1620682715.4,286047026.8,Y
1620682735.2,286047016.5,P
1620682755.1,286047018.3,P
1620682756.0,286047018.3,P
1620682775.8,286047016.9,Y
1620682795.6,286047000.3,P
1620682815.5,286047006.1,N
1620682835.3,286047002.9,N
1620682855.1,286047001.5,N
1620682875.9,286047003.7,N
1620682895.7,286047003.0,N
1620682915.6,286047008.6,N
1620682935.4,286047008.3,N
1620682955.2,286047009.8,N
1620682975.1,286047009.3,N
1620682976.0,286047009.3,N
1620682995.8,286047012.1,N
1620683015.6,286047012.5,N
1620683035.5,286047011.0,N
1620683055.3,286047013.4,Y
1620683075.2,286047010.0,P
1620683095.0,286047011.8,P
1620683095.9,286047011.8,P
1620683115.7,286047012.0,Y
1620683135.6,286047007.6,P
1620683155.4,286047010.1,P
1620683175.3,286047008.3,P
1620683195.1,286047018.4,Y
1620683215.8,286047008.5,P
1620683235.7,286047004.2,P
1620683255.5,286047008.8,P
1620683275.4,286047018.8,Y
1620683295.2,286047016.8,P
1620683315.0,286047011.3,N
1620683315.9,286047011.3,N
1620683335.8,286047011.4,Y
1620683355.6,286047000.4,P
1620683375.4,286046996.8,N
1620683395.3,286046990.8,N
1620683415.1,286046988.7,N
1620683435.9,286046994.2,N
1620683455.7,286047000.8,N
1620683475.5,286047001.3,N
1620683495.4,286047008.6,N
1620683515.2,286047008.5,N
1620683535.1,286047013.6,N
1620683536.0,286047013.6,N
1620683555.8,286047011.6,N
1620683575.6,286047010.7,N
1620683595.5,286047007.0,N
1620683615.3,286047004.9,N
1620683635.1,286047004.8,N
1620683655.9,286047005.4,N
1620683675.7,286047004.7,N
1620683695.6,286047007.2,N
1620683715.4,286047004.7,N
1620683735.2,286047005.0,N
1620683755.1,286047009.1,N
1620683756.0,286047009.1,N
1620683775.8,286047008.4,N
1620683795.7,286047008.5,N
1620683815.5,286047003.0,N
1620683835.3,286047004.2,N
1620683855.2,286047005.6,N
1620683875.0,286047009.6,N
1620683875.9,286047009.6,N
1620683895.7,286047011.5,N
1620683915.6,286047011.7,N
1620683935.4,286047007.7,N
1620683955.3,286047008.8,N
1620683975.1,286047006.7,N
1620683976.0,286047006.7,N
1620683995.8,286047005.2,N
